Location: Ostrava
(49.8330°N, 18.2830°E)
Time: 21:13:30
(UTC+02:00)

Vanguard 2 Rocket - Visible Passes

Search period start: 30 July 2014 00:00
Search period end: 09 August 2014 00:00
Orbit: 553 x 3336 km, 32.9° (Epoch: 28 July)

Date Brightness Start Highest point End Pass type
(mag) Time Alt. Az. Time Alt. Az. Time Alt. Az.
30 Jul 9.8 02:52:21 11° S 02:59:32 20° SE 03:09:40 10° E visible
31 Jul 9.9 01:57:41 10° SSE 02:01:24 12° SE 02:05:39 10° ESE visible
31 Jul 9.7 04:03:12 10° SSW 04:13:36 32° SSE 04:28:28 10° E visible
01 Aug 9.5 03:07:57 15° S 03:14:54 25° SE 03:26:54 10° E visible
02 Aug 9.6 02:12:49 14° SSE 02:16:38 17° SE 02:24:41 10° ESE visible
02 Aug 9.6 04:18:53 10° SW 04:29:20 36° SSE 04:44:48 10° ESE visible
03 Aug 9.3 03:23:34 16° SSW 03:30:29 30° SSE 03:43:33 10° E visible
04 Aug 9.3 02:28:26 19° S 02:32:05 22° SE 02:41:59 10° ESE visible
04 Aug 9.5 04:34:55 10° SW 04:45:14 38° SSE 05:00:53 10° ESE visible
05 Aug 9.5 01:33:18 15° SE 01:34:04 15° SE 01:39:45 10° ESE visible
05 Aug 9.2 03:39:12 17° SSW 03:46:18 33° SSE 03:59:51 10° ESE visible
06 Aug 9.0 02:44:06 22° S 02:47:46 27° SSE 02:58:40 10° ESE visible
07 Aug 9.2 01:49:00 19° SSE 01:49:38 19° SE 01:57:15 10° ESE visible
07 Aug 9.1 03:54:55 15° SW 04:02:17 35° SSE 04:15:53 10° ESE visible
08 Aug 9.7 00:53:57 11° SE 00:53:57 11° SE 00:54:48 10° ESE visible
08 Aug 8.8 02:59:51 23° SSW 03:03:39 30° SSE 03:14:58 10° ESE visible
